Torna al catalogo

PE2_FLT2

TYVAK-0262

AttivoScienzaSSO
NORAD 59104·PAYLOAD·🇺🇸 United States

Lanciato Mar 4, 2024 da Vandenberg Space Force Base

Loading…

Prossimi Passaggi (prossime 24 ore)

TLE

AggiornatoSource: Space-Track

Epoca: Sep 14, 2026, 04:43 UTC

1 59104U 24043G   26257.19655442  .00001917  00000-0  16920-3 0  9999
2 59104  97.8520  28.2077 0007684 102.0231 258.1852 14.97576935137976

Traccia PE2_FLT2 in tempo reale con AllMySat

Download on the App Store